Terminal Aerodrome Forecast
Issued by NWS

Current Version | Previous Version | Graphics & Text | Print | Product List | Glossary On
Versions: 1 2 3 4 5 6 7 8 9 10 11 12 13 14 15 16 17 18 19 20 21 22 23 24
000
FTUS41 KILN 251500 AAA
TAFLUK
TAF AMD
KLUK 251512Z 2515/2612 VRB03KT P6SM SCT250
     FM251700 07003KT P6SM BKN250
     FM252100 06004KT P6SM SCT150 OVC250
     FM260200 03005KT P6SM OVC100
     FM260800 02005KT P6SM OVC040=

USA.gov is the U.S. government's official web portal to all federal, state and local government web resources and services.